Tracking 19817 objects as of 18-Aug-2019
HD Live streaming from Space Station
objects crossing your sky now

FENGYUN 1C DEB

Track FENGYUN 1C DEB now!
10-day predictions


NORAD ID: 36991
Int'l Code: 1999-025EBX
Perigee: 809.9 km
Apogee: 1,233.9 km
Inclination: 98.1 °
Period: 105.4 minutes
Semi major axis: 7392 km
RCS: 0.0013 m2 (small)
Launch date: May 10, 1999
Source: People's Republic of China (PRC)
Launch site: Taiyaun Space Center, China (TSC)

Note: This is SATELLITE DEBRIS
aabbcc
Your satellite tracking list
Your tracking list is empty




NASA's NSSDC Master Catalog

Two Line Element Set (TLE):
1 36991U 99025EBX 19226.26272360  .00000376  00000-0  37450-3 0  9999
2 36991  98.1052 238.3274 0286775 129.6169 233.0673 13.65777157588579
Source of the keplerian elements: AFSPC